www.pogodaiklimat.ru

Погода и климат >> Архив погоды >> Индия >> Jagdalpur


ПОГОДА в Jagdalpur

  • Прогноз погоды в Jagdalpur
  • Монитор погоды в Jagdalpur
  • Климат города

АРХИВ ПОГОДЫ в Jagdalpur

Время (UTC), дата Ветер
(напр.,м/с)
 
Видим.   Явления Облачность Т
(С)
Тd
(С)
f
(%)
Тe
(С)
Тes
(С)
Комфортность P
(гПа)
Po
(гПа)
Тmin
(С)
Tmax
(С)
R
(мм)
S
(см)
18 20.03 штиль 0 4000 м ясно +23.8 +12.4 49 +26 +26 жарко 1012.5 951.0
21 20.03 штиль 0 4000 м ясно +20.4 +12.6 61 +22 +22 комфорт 1012.5 950.5
00 21.03 штиль 0 4000 м ясно +17.8 +11.9 68 +18 +18 1014.2 951.4
03 21.03 СВ 1 4000 м ясно +25.4 +12.4 44 +27 +36 жарко 1015.1 953.9 +16.8
06 21.03 СВ 2 4000 м ясно +31.4 +8.2 24 +30 +52 опасность
солнечного
удара
1012.7 952.8
09 21.03 СВ 2 4000 м ясно +33.8 +6.3 18 +32 +46 жарко 1009.8 950.5
12 21.03 СВ 1 4000 м ясно +32.8 +10.5 25 +32 +33 жарко 1009.3 949.8 +35.0
15 21.03 В 1 4000 м ясно +26.6 +10.1 35 +27 +27 жарко 1012.1 951.2
18 21.03 штиль 0 4000 м ясно +22.6 +11.3 49 +25 +25 комфорт 1013.5 951.8
21 21.03 штиль 0 4000 м ясно +20.4 +11.8 58 +22 +22 комфорт 1013.8 951.2
00 22.03 ЮЗ 1 4000 м ясно +16.6 +10.1 65 +17 +17 1013.8 950.4
03 22.03 штиль 0 4000 м ясно +24.8 +16.0 58 +28 +38 жарко 1014.7 953.3 +15.5
06 22.03 Ю 2 4000 м ясно +32.0 +11.7 29 +32 +52 опасность
солнечного
удара
1012.6 952.7
09 22.03 СЗ 2 4000 м ясно +35.4 +8.7 20 +34 +48 очень
жарко
1008.3 949.4
12 22.03 штиль 0 4000 м ясно +34.4 +9.6 22 +33 +34 жарко 1007.1 948.1 +36.1
15 22.03 штиль 0 4000 м ясно +27.0 +12.5 41 +29 +29 жарко 1010.9 950.1
18 22.03 штиль 0 4000 м ясно +22.6 +11.5 49 +25 +25 комфорт 1012.7 951.0
21 22.03 штиль 0 4000 м ясно +21.2 +12.0 56 +23 +23 комфорт 1011.6 949.8
00 23.03 штиль 0 4000 м ясно +19.6 +14.7 73 +21 +21 комфорт 1012.0 949.8
03 23.03 ЮВ 2 4000 м мгла ясно +25.2 +20.2 74 +31 +38 очень
душно
1012.9 951.8 +18.5
06 23.03 штиль 0 4000 м ясно +33.2 +16.4 37 +36 +63 опасность
солнечного
удара
1011.1 951.6
09 23.03 ЮВ 1 4000 м ясно +36.8 +11.7 22 +36 +51 опасность
солнечного
удара
1006.7 948.1
12 23.03 штиль 0 4000 м ясно +35.4 +13.7 27 +36 +37 очень
жарко
1006.0 947.2 +37.0
15 23.03 штиль 0 4000 м ясно +28.2 +14.9 44 +31 +31 душно 1009.6 949.3
18 23.03 штиль 0 4000 м ясно +25.0 +15.1 54 +28 +28 жарко 1011.1 949.9
21 23.03 штиль 0 4000 м ясно +22.8 +14.3 59 +26 +26 жарко 1010.6 949.0
00 24.03 штиль 0 4000 м ясно +21.2 +17.1 77 +25 +25 комфорт 1011.0 949.2
03 24.03 Ю 1 4000 м ясно +26.2 +20.0 69 +32 +41 очень
душно
1012.2 951.3 +20.0
06 24.03 З 1 4000 м ясно +34.2 +15.9 34 +37 +60 опасность
солнечного
удара
1010.0 950.9
09 24.03 З 1 4000 м 1/1 750 м
[Sc]
+37.0 +12.5 23 +37 +51 опасность
солнечного
удара
1006.3 947.7
12 24.03 штиль 0 4000 м 1/1 750 м
[Sc]
+36.2 +13.1 25 +36 +37 очень
жарко
1005.4 946.9 +38.1
15 24.03 ЮЗ 2 4000 м ясно +30.8 +15.9 41 +34 +34 очень
душно
1008.8 948.9
18 24.03 ЮЗ 3 4000 м ясно +29.4 +14.5 40 +31 +31 жарко 1009.8 949.7
21 24.03 штиль 0 4000 м ясно +25.4 +19.7 71 +31 +31 очень
душно
1009.6 948.7
00 25.03 штиль 0 4000 м ясно +23.4 +18.8 75 +30 +30 очень
душно
1010.7 949.3
03 25.03 Ю 2 4000 м ясно +27.6 +19.4 61 +33 +42 очень
душно
1012.4 951.8 +22.1
06 25.03 З 1 4000 м ясно +35.0 +17.3 35 +38 +62 опасность
солнечного
удара
1010.2 951.0
09 25.03 СЗ 2 4000 м 3/3 900 м
[Cu med, cong]
+37.4 +17.1 30 +40 +49 очень
душно
1005.9 947.5
12 25.03 З 1 4000 м 4/1 900 м
[Cu hum Ci fib]
+36.0 +17.5 34 +39 +40 очень
душно
1005.3 946.6 +38.1
15 25.03 Ю 1 4000 м 3/3 750 м
[Sc]
+30.6 +17.6 46 +35 +35 очень
душно
1008.7 948.9
18 25.03 Ю 1 4000 м ясно +26.6 +17.4 57 +31 +31 душно 1010.8 950.0
21 25.03 штиль 0 4000 м ясно +24.4 +16.9 63 +28 +28 душно 1010.3 949.1
00 26.03 штиль 0 4000 м ясно +23.0 +18.4 75 +29 +29 очень
душно
1010.7 949.1
03 26.03 ЮЗ 1 4000 м ясно +28.4 +21.1 65 +36 +45 очень
душно
1012.6 952.1 +21.4
06 26.03 Ю 2 4000 м ясно +34.0 +19.0 41 +39 +59 опасность
солнечного
удара
1011.2 951.7
09 26.03 СЗ 2 4000 м 3/3 750 м
[Sc]
+38.4 +18.5 31 +42 +51 опасность
перегрева
1006.6 948.4
12 26.03 штиль 0 4000 м 3/3 750 м
[Sc]
+37.2 +19.1 35 +42 +42 опасность
перегрева
1005.6 947.2 +39.1
15 26.03 штиль 0 4000 м ясно +31.2 +18.5 47 +36 +36 очень
душно
1009.5 949.8
18 26.03 СВ 1 4000 м ясно +29.0 +17.8 51 +33 +33 очень
душно
1010.6 950.3
21 26.03 штиль 0 4000 м ясно +27.6 +18.2 57 +32 +32 очень
душно
1009.7 949.2
00 27.03 штиль 0 4000 м ясно +22.4 +17.8 75 +27 +27 душно 1011.1 949.5
03 27.03 ЮЗ 1 4000 м ясно +27.8 +18.5 57 +33 +42 очень
душно
1013.0 952.3 +21.6
06 27.03 С 1 4000 м ясно +35.0 +18.1 37 +39 +63 опасность
солнечного
удара
1010.8 951.6
09 27.03 Ю 1 4000 м 5/5 750 м
[Cu Sc]
+36.6 +17.9 33 +40 +48 очень
душно
1007.0 948.4
12 27.03 Ю 1 4000 м 3/3 750 м
[Sc]
+35.4 +17.8 35 +39 +39 очень
душно
1006.4 947.6 +37.6
15 27.03 Ю 1 4000 м ясно +30.0 +15.3 41 +33 +33 душно 1010.0 949.9

 

Местоположение метеостанции Jagdalpur (Chhattisgarh, Индия): широта 19.08 долгота 82.03 высота над уровнем моря 553 м.

В архиве по умолчанию представлена погода в Jagdalpur за последнюю неделю. Архивные данные за месяц целиком и за предыдущие месяцы, начиная с января 2011 года, Вы можете получить, выбрав интересующий диапазон дат из раскрывающегося списка и нажав кнопку "Ввод!".

Внимание! Время в таблицах - всемирное. Для получения местного времени необходимо прибавить поправку, которая в Jagdalpur равна 5.5 ч.

Смотрите также архив погоды в соседних городах и на ближайших метеорологических станциях:

Погода в Koraput (Orissa, Индия) (78 км)
Погода в Bhawanipatna (Orissa, Индия) (153 км)
Погода в Titlagarh (Orissa, Индия) (190 км)
Погода в Visakhapatnam (Andhra Pradesh, Индия) (197 км)
Погода в Bhadrachalam (Telangana, Индия) (198 км)
Погода в Tuni (Andhra Pradesh, Индия) (200 км)
Погода в Visakhapatnam Walt (Andhra Pradesh, Индия) (204 км)
Погода в Kalingapatam (Andhra Pradesh, Индия) (236 км)
Погода в Kakinada (Andhra Pradesh, Индия) (238 км)
Погода в Raipur (Chhattisgarh, Индия) (242 км)

Пояснения к столбцам:

Ветер - указаны скорость ветра в м/с - средняя за 10 мин, порывы в срок и между сроками (в фигурных скобках) и направление, откуда дует ветер: С - северный, СВ - северо-восточный, В - восточный, ЮВ - юго-восточный, Ю - южный, ЮЗ - юго-западный, З - западный, СЗ - северо-западный.
Видимость - горизонтальная дальность видимости в метрах или километрах. При видимости от 1 до 10 км при отсутствии осадков обычно наблюдается дымка, при ухудшении видимости до 1 км и менее - туман. В сухую погоду видимость может ухудшаться дымом, пылью или мглою.
Явления - указаны атмосферные явления, наблюдавшиеся в срок или в последний час перед сроком; фигурными скобками обозначены явления, наблюдавшиеся между сроками (за 1-3 часа до срока); квадратными скобками обозначены град или гололедные отложения с указанием их диаметра в мм.
Облачность - указаны через наклонную черту общая и нижняя облачность в баллах и высота нижней границы облаков в метрах; квадратными скобками обозначены формы облаков: Ci - перистые, Cs - перисто-слоистые, Cc - перисто-кучевые, Ac - высококучевые, As - высокослоистые, Sc - слоисто-кучевые, Ns - слоисто-дождевые, Cu - кучевые, Cb - кучево-дождевые. Подробнее классификацию облаков см. в Атласе облаков (PDF).
T - Температура воздуха - температура, измеренная на высоте 2 м над землей.
Td - Температура точки росы - температура, при понижении до которой содержащийся в воздухе водяной пар достигнет насыщения.
f - Относительная влажность воздуха - влажноcть воздуха, измеренная на высоте 2 м над землей.
Te - Эффективная температура - температура, которую ощущает одетый по сезону человек в тени. Характеристика душности погоды. При расчете учитывается влияние влажности воздуха и скорости ветра на теплоощущения человека.
Tes - Эффективная температура на солнце - температура, которую ощущает человек, с поправкой на солнечный нагрев. Характеристика знойности погоды. Зависит от высоты солнца над горизонтом, облачности и скорости ветра. Ночью, в пасмурную погоду, а также при ветре 12 м/с и более поправка равна нулю.
P - Атмосферное давление - приведенное к уровню моря атмосферное давление.
Po - Атмосферное давление - измеренное на уровне метеостанции атмосферное давление.
Tmin - Минимальная температура - минимум температуры воздуха на высоте 2 м над землей.
Tmax - Максимальная температура - максимум температуры воздуха на высоте 2 м над землей.
R - Количество осадков - Количество выпавших осадков, мм. При наведении курсора мыши на число - период времени, за который выпало указанное количество осадков.
S - Снежный покров - Высота снежного покрова, см. При наведении курсора мыши на число - состояние снежного покрова и степень покрытия местности в баллах.